Location: Forst
(46.9333°N, 15.4333°E)
Time: 15:59:16
(UTC+00:00)

Feng Yun 1-1 Rocket - Pass Details

Date: 01 December 2020
Orbit: 830 x 933 km, 99.2° (Epoch: 28 January)

Event Time Altitude Azimuth Distance (km) Brightness Sun altitude
Rises 16:48:26 0° 159° (SSE) 3,522 7.4 -16.0°
Reaches altitude 10° 16:50:51 10° 159° (SSE) 2,571 6.6 -16.4°
Maximum altitude 16:56:35 81° 73° (ENE) 899 4.2 -17.3°
Drops below altitude 10° 17:02:12 10° 347° (NNW) 2,518 6.7 -18.3°
Sets 17:04:33 0° 346° (NNW) 3,445 7.4 -18.7°
